STARLINK-33994

Satellite information

Favourite Embed

Satellite Type and Status

PAYLOADIN ORBIT

Key statistics

Satellite STARLINK-33994 at a glance.

Uptime

214

Days in orbit

Revolutions

≈ 15.0

Per day

Orbit

LEO

Low Earth Orbit

Inclination

70.0

Latest

Satellite identification and parameters

Extended collection of information and parameters for STARLINK-33994.

Object identification

Identified? True

Debris? False

Object name: STARLINK-33994

International designator: 2025-098F

Object number (NORAD): 63931

Object ID (CCSDS): 63931

Country: UNITED STATES OF AMERICA (US)

Current information (Y/N): Y

RCS size: LARGE

Orbital parameters

Period: 96.106 minutes

Inclination: 70.0015 deg

SMA: 6950.142 km

Apoapsis: 574.123 km

Periapsis: 569.891 km

RAAN: 135.6321 deg

Eccentricy: 0.00030445

Argument of periapsis: 266.2079 deg

Mean anomaly: 93.8732 deg

Mean motion: 14.98346469 rev/day

Mean motion (dot): 0.00004447 rev/day2

B* drag term: 0.00038007567 1/REarth

Two-line elements (TLE)

Creation date: Dec. 12, 2025, 10:14 a.m.

Reference frame: TEME

Reference center: EARTH

Epoch: Dec. 11, 2025, 11:29 p.m. UTC

TLE line 0: 0 STARLINK-33994

TLE line 1: 1 63931U 25098F 25345.97876965 .00004447 00000-0 38008-3 0 9993

TLE line 2: 2 63931 70.0015 135.6321 0003044 266.2079 93.8732 14.98346469 33430

Live tracking on map

Real-time ground track for satellite STARLINK-33994.

In-orbit conjunctions

There are no conjunctions computed for STARLINK-33994, at the moment. Check back to stay up to date, as we update our databases every day.

Go to all conjunctions

Associated space launch

A batch of 26 satellites for the Starlink mega-constellation - SpaceX's project for space-based Internet communication system.

STARLINK-33994 was lifted into orbit during the mission ‘Falcon 9 Block 5 | Starlink Group 15-4’, on board a Falcon 9 space rocket.

The launch took place on May 13, 2025, 1:15 a.m. from Space Launch Complex 4E.

For more information about the launch, click the button.

Launch to space Falcon 9 Block 5 | Starlink Group 15-4
Falcon 9 Block 5 | Starlink Group 15-4

Agency: SpaceX

Status: Launch Successful

Launch date: May 13, 2025, 1:15 a.m. UTC

Rocket: Falcon 9

Launch pad: Space Launch Complex 4E

Location: Vandenberg SFB, CA, USA

...

Latest news about this satellite

News about space launch
Launch Roundup: Orbital launches from five countries planned

On the heels of a busy April, activity is ramping up for May with launches… The post Launch Roundup: Orbital launches from five countries planned appeared first on NASASpaceFlight.com.

News about space launch
Live coverage: SpaceX to launch 26 Starlink satellites on Falcon 9 rocket from Vandenberg SFB

The Falcon 9 rocket will fly in a south-easterly trajectory once its lifts off from Space Launch Complex 4 East at Vandenberg Space Force Base. SpaceX is targeting a launch at 6:15 p.m. PDT (9:15 p.m. EDT, 0115 UTC).


Newsletter sign-up

Weekly statistics, charts and insights to help you stay on top of the space industry.